LEMUR-2-OZARAK (46908 NORAD) Tracking and Keplerian Element Data

This shows tracking and keplerian element data for the satellite.

Feedback or suggestion? Click here.




ElementValue
Catalog46908
NameLEMUR-2-OZARAK
Epoch Orbit1123
Epoch Day21.25290321
Epoch Year2021
RAAN17.2025
Inclination36.9067
Eccentricity0.0007595
Argument of Perigee229.2594
Mean Anonmoly130.7491
Mean Motion14.98936663
Decay Rate6.4E-06
L11 46908U 20081D 21021.25290321 .00000640 00000-0 58232-4 0 9992
L22 46908 36.9067 17.2025 0007595 229.2594 130.7491 14.98936663 11233

Live tracking and technical data element details for LEMUR-2-OZARAK (NORAD 46908). LEMUR-2-OZARAK can be tracked NOW for your location showing map with azimuth and elevation plus other details from your city location.

Track the satellite on the map from your city or location and see movement details for azimuth, elevation, latitude, longitude, range, height, and movement on the map or in text.







IsCatalogInMostPopularTable: catalog: 46908, numindb: 32
Update: records affected: 1



GetName: 46908 LEMUR-2-OZARAK

Hit Count: updated at: Fri, 22 Jan 2021 19:34:16 GMT